This is the latest recevied weather packets stored in our database for station/object W2SRH. If no packets are shown the sender has not sent any weather packets the latest 1 day(s).
| Time | Temp. | Humidity | Pressure | Rain* | Wind** | Luminosity | Snow |
|---|---|---|---|---|---|---|---|
| 1778013544 | 28.89° C | 24% | 999.8 hPa | 0 mm | 2.24 m/s, 227° | - | - |
| 1778012945 | 28.33° C | 24% | 999.8 hPa | 0 mm | 2.68 m/s, 251° | - | - |
| 1778012345 | 28.89° C | 24% | 999.9 hPa | 0 mm | 2.68 m/s, 277° | - | - |
| 1778011745 | 28.89° C | 24% | 999.8 hPa | 0 mm | 3.58 m/s, 262° | - | - |
| 1778011144 | 28.33° C | 25% | 999.9 hPa | 0 mm | 1.79 m/s, 257° | - | - |
| 1778010544 | 28.89° C | 26% | 999.9 hPa | 0 mm | 3.13 m/s, 241° | - | - |
| 1778009945 | 28.33° C | 26% | 1000.1 hPa | 0 mm | 3.13 m/s, 281° | - | - |
| 1778009345 | 28.89° C | 29% | 1000.1 hPa | 0 mm | 2.24 m/s, 241° | - | - |
| 1778008744 | 28.33° C | 30% | 1000.3 hPa | 0 mm | 2.24 m/s, 228° | - | - |
| 1778008144 | 27.78° C | 29% | 1000.3 hPa | 0 mm | 2.24 m/s, 220° | - | - |
| 1778007544 | 28.33° C | 29% | 1000.5 hPa | 0 mm | 4.02 m/s, 249° | - | - |
| 1778006945 | 28.33° C | 30% | 1000.6 hPa | 0 mm | 1.79 m/s, 240° | - | - |
| 1778006345 | 28.33° C | 30% | 1000.8 hPa | 0 mm | 1.34 m/s, 214° | - | - |
| 1778005745 | 27.78° C | 32% | 1001 hPa | 0 mm | 1.34 m/s, 257° | - | - |
| 1778005146 | 27.78° C | 32% | 1001.1 hPa | 0 mm | 0.89 m/s, 260° | - | - |
| 1778004549 | 27.78° C | 32% | 1001.2 hPa | 0 mm | 3.13 m/s, 257° | - | - |
| 1778003944 | 27.22° C | 33% | 1001.4 hPa | 0 mm | 0.89 m/s, 90° | - | - |
| 1778003344 | 27.78° C | 33% | 1001.4 hPa | 0 mm | 1.34 m/s, 230° | - | - |
| 1778002745 | 27.78° C | 33% | 1001.5 hPa | 0 mm | 1.34 m/s, 273° | - | - |
| 1778002145 | 27.78° C | 35% | 1001.7 hPa | 0 mm | 0.45 m/s, 261° | - | - |
| 1778001545 | 27.22° C | 35% | 1001.6 hPa | 0 mm | 1.34 m/s, 233° | - | - |
| 1778000945 | 26.67° C | 35% | 1001.6 hPa | 0 mm | 1.34 m/s, 199° | - | - |
| 1778000344 | 26.67° C | 35% | 1001.8 hPa | 0 mm | 0.89 m/s, 170° | - | - |
| 1777999745 | 26.67° C | 37% | 1001.9 hPa | 0 mm | 0.89 m/s, 212° | - | - |
| 1777999145 | 26.11° C | 38% | 1001.9 hPa | 0 mm | 0.89 m/s, 201° | - | - |
* Rain latest hour (hover to see other rain measurements)
** Current wind speed in m/s (hover to see current wind gust speed)